MSR110 HECA-OERS

Flight info

Callsign MSR110
Flight time 1h 17m
Altitude 33000
Route SOLAM A727 SEMRU M872 EVANO J852 KULKI
Aircraft A20N/M-SDE2E3FGHIRWXY/LB1

Departure

Time 2026-04-30 12:03
Airport Cairo International Airport (HECA)

Arrival

Time 2026-04-30 13:21
Airport Red Sea International Airport (OERS)
Time Latitude Longitude Altitude Speed Heading
2026-04-30 11:38 30.11203 31.40289 387 ft 0 kts 198°
2026-04-30 11:53 30.11204 31.40289 387 ft 0 kts 198°
2026-04-30 11:53 30.11217 31.40294 387 ft 2 kts 198°
2026-04-30 11:53 30.11227 31.40298 387 ft 0 kts 198°
2026-04-30 11:54 30.11236 31.40301 387 ft 2 kts 192°
2026-04-30 11:54 30.11257 31.40302 387 ft 2 kts 172°
2026-04-30 11:54 30.11267 31.40300 387 ft 2 kts 163°
2026-04-30 11:54 30.11286 31.40291 387 ft 2 kts 146°
2026-04-30 11:55 30.11298 31.40279 387 ft 2 kts 133°
2026-04-30 11:55 30.11305 31.40270 387 ft 2 kts 124°
2026-04-30 11:55 30.11313 31.40252 387 ft 0 kts 109°
2026-04-30 11:55 30.11315 31.40246 387 ft 0 kts 107°
2026-04-30 11:56 30.11314 31.40247 387 ft 0 kts 107°
2026-04-30 11:57 30.11313 31.40254 387 ft 1 kts 107°
2026-04-30 11:57 30.11305 31.40284 387 ft 3 kts 107°
2026-04-30 11:57 30.11295 31.40319 387 ft 5 kts 106°
2026-04-30 11:57 30.11282 31.40363 387 ft 5 kts 114°
2026-04-30 11:58 30.11253 31.40403 387 ft 7 kts 137°
2026-04-30 11:58 30.11213 31.40445 387 ft 8 kts 138°
2026-04-30 11:58 30.11181 31.40478 387 ft 9 kts 140°
2026-04-30 11:58 30.11099 31.40554 387 ft 11 kts 140°
2026-04-30 11:59 30.11032 31.40622 388 ft 11 kts 146°
2026-04-30 11:59 30.10962 31.40581 388 ft 11 kts 226°
2026-04-30 11:59 30.10898 31.40503 388 ft 12 kts 228°
2026-04-30 11:59 30.10832 31.40415 388 ft 13 kts 229°
2026-04-30 12:00 30.10763 31.40323 388 ft 14 kts 229°
2026-04-30 12:00 30.10692 31.40232 387 ft 15 kts 227°
2026-04-30 12:00 30.10641 31.40166 387 ft 15 kts 229°
2026-04-30 12:00 30.10536 31.40023 387 ft 16 kts 229°
2026-04-30 12:01 30.10479 31.39948 387 ft 16 kts 228°
2026-04-30 12:01 30.10394 31.39840 387 ft 16 kts 229°
2026-04-30 12:01 30.10309 31.39728 387 ft 17 kts 229°
2026-04-30 12:01 30.10222 31.39609 387 ft 17 kts 229°
2026-04-30 12:02 30.10123 31.39606 387 ft 14 kts 101°
2026-04-30 12:02 30.10183 31.39715 387 ft 11 kts 49°
2026-04-30 12:02 30.10351 31.39941 388 ft 72 kts 49°
2026-04-30 12:02 30.10843 31.40596 388 ft 136 kts 48°
2026-04-30 12:03 30.11313 31.41206 495 ft 158 kts 46°
2026-04-30 12:03 30.12839 31.43417 1796 ft 162 kts 49°
2026-04-30 12:03 30.13829 31.44853 2693 ft 160 kts 48°
2026-04-30 12:04 30.14511 31.46056 2897 ft 191 kts 68°
2026-04-30 12:04 30.14620 31.47156 2956 ft 216 kts 93°
2026-04-30 12:04 30.14152 31.49173 2966 ft 254 kts 108°
2026-04-30 12:04 30.13467 31.51328 3206 ft 261 kts 109°
2026-04-30 12:05 30.12616 31.53387 3454 ft 265 kts 127°
2026-04-30 12:05 30.10474 31.55011 3795 ft 266 kts 167°
2026-04-30 12:05 30.09129 31.55183 3977 ft 266 kts 179°
2026-04-30 12:05 30.06464 31.55250 4485 ft 267 kts 179°
2026-04-30 12:06 30.04453 31.55299 5136 ft 269 kts 179°
2026-04-30 12:06 30.03101 31.55333 5656 ft 271 kts 179°
2026-04-30 12:06 30.00495 31.55322 6656 ft 274 kts 186°
2026-04-30 12:06 29.98489 31.55065 7424 ft 277 kts 189°
2026-04-30 12:07 29.96482 31.54773 8180 ft 280 kts 189°
2026-04-30 12:07 29.94388 31.54478 8958 ft 284 kts 189°
2026-04-30 12:07 29.92973 31.54284 9476 ft 287 kts 189°
2026-04-30 12:07 29.90823 31.54002 10253 ft 297 kts 189°
2026-04-30 12:08 29.87824 31.53631 11165 ft 314 kts 189°
2026-04-30 12:08 29.86299 31.53445 11501 ft 325 kts 189°
2026-04-30 12:08 29.83021 31.53040 12177 ft 347 kts 189°
2026-04-30 12:08 29.80363 31.52716 12702 ft 361 kts 189°
2026-04-30 12:09 29.78565 31.52506 13048 ft 366 kts 188°
2026-04-30 12:09 29.74900 31.52360 13744 ft 371 kts 184°
2026-04-30 12:09 29.72132 31.52342 14328 ft 377 kts 183°
2026-04-30 12:09 29.69342 31.52471 15172 ft 382 kts 177°
2026-04-30 12:10 29.66503 31.52975 15994 ft 389 kts 171°
2026-04-30 12:10 29.64628 31.53512 16498 ft 393 kts 168°
2026-04-30 12:10 29.60788 31.54770 17498 ft 400 kts 167°
2026-04-30 12:10 29.58867 31.55412 17977 ft 404 kts 167°
2026-04-30 12:11 29.54990 31.56705 18911 ft 410 kts 167°
2026-04-30 12:11 29.53021 31.57359 19385 ft 412 kts 167°
2026-04-30 12:11 29.48978 31.58690 20292 ft 418 kts 168°
2026-04-30 12:11 29.45909 31.59694 20957 ft 422 kts 168°
2026-04-30 12:12 29.43887 31.60354 21408 ft 424 kts 168°
2026-04-30 12:12 29.40103 31.61589 22189 ft 429 kts 169°
2026-04-30 12:12 29.37221 31.62528 22740 ft 434 kts 169°
2026-04-30 12:12 29.34298 31.63478 23332 ft 437 kts 169°
2026-04-30 12:13 29.31339 31.64440 23935 ft 440 kts 169°
2026-04-30 12:13 29.28352 31.65409 24506 ft 443 kts 170°
2026-04-30 12:13 29.26294 31.66077 24864 ft 445 kts 170°
2026-04-30 12:13 29.23307 31.67046 25342 ft 449 kts 170°
2026-04-30 12:14 29.19248 31.68364 25969 ft 454 kts 170°
2026-04-30 12:14 29.17232 31.69019 26301 ft 455 kts 170°
2026-04-30 12:14 29.13150 31.70344 26902 ft 460 kts 170°
2026-04-30 12:14 29.11096 31.71010 27184 ft 462 kts 170°
2026-04-30 12:15 29.07736 31.72102 27665 ft 465 kts 170°
2026-04-30 12:15 29.04372 31.73194 28147 ft 467 kts 170°
2026-04-30 12:15 28.99881 31.74650 28830 ft 468 kts 170°
2026-04-30 12:15 28.96519 31.75735 29476 ft 466 kts 170°
2026-04-30 12:16 28.93163 31.76807 30066 ft 464 kts 170°
2026-04-30 12:16 28.89793 31.77880 30608 ft 463 kts 171°
2026-04-30 12:16 28.86693 31.78869 31080 ft 462 kts 171°
2026-04-30 12:16 28.83525 31.79874 31514 ft 462 kts 171°
2026-04-30 12:17 28.77032 31.81932 32188 ft 467 kts 171°
2026-04-30 12:17 28.74762 31.82652 32433 ft 467 kts 172°
2026-04-30 12:17 28.70376 31.84041 32855 ft 470 kts 172°
2026-04-30 12:18 28.66981 31.85113 32994 ft 473 kts 172°
2026-04-30 12:18 28.64735 31.85825 32999 ft 474 kts 172°
2026-04-30 12:18 28.57820 31.88014 33009 ft 474 kts 172°
2026-04-30 12:19 28.49770 31.90560 33021 ft 473 kts 172°
2026-04-30 12:19 28.44012 31.92376 33024 ft 473 kts 172°
2026-04-30 12:20 28.35928 31.94927 33030 ft 474 kts 172°
2026-04-30 12:20 28.28979 31.97112 33029 ft 475 kts 172°
2026-04-30 12:21 28.22055 31.99287 33030 ft 475 kts 172°
2026-04-30 12:21 28.16299 32.01094 33035 ft 475 kts 172°
2026-04-30 12:22 28.08290 32.04100 33035 ft 486 kts 160°
2026-04-30 12:22 28.05120 32.06262 33039 ft 496 kts 149°
2026-04-30 12:22 28.03153 32.08058 33040 ft 501 kts 142°
2026-04-30 12:23 27.99743 32.12453 33199 ft 514 kts 127°
2026-04-30 12:23 27.98383 32.14949 33470 ft 516 kts 121°
2026-04-30 12:23 27.95918 32.20159 34038 ft 514 kts 120°
2026-04-30 12:23 27.94276 32.23719 34362 ft 513 kts 120°
2026-04-30 12:24 27.92624 32.27256 34653 ft 513 kts 120°
2026-04-30 12:24 27.90906 32.30887 34964 ft 512 kts 121°
2026-04-30 12:24 27.89756 32.33296 35174 ft 511 kts 121°
2026-04-30 12:24 27.87487 32.38006 35529 ft 511 kts 122°
2026-04-30 12:25 27.86331 32.40402 35750 ft 510 kts 122°
2026-04-30 12:25 27.83988 32.45235 36238 ft 509 kts 122°
2026-04-30 12:25 27.82193 32.48931 36564 ft 508 kts 122°
2026-04-30 12:25 27.80390 32.52645 36883 ft 508 kts 122°
2026-04-30 12:26 27.78589 32.56350 37005 ft 508 kts 123°
2026-04-30 12:26 27.76769 32.60089 37004 ft 509 kts 123°
2026-04-30 12:26 27.73206 32.67397 37152 ft 508 kts 123°
2026-04-30 12:27 27.69646 32.74691 37096 ft 508 kts 123°
2026-04-30 12:27 27.66669 32.80793 37023 ft 507 kts 123°
2026-04-30 12:28 27.64124 32.85994 36768 ft 508 kts 123°
2026-04-30 12:28 27.62208 32.89896 36497 ft 508 kts 123°
2026-04-30 12:28 27.60949 32.92467 36303 ft 508 kts 123°
2026-04-30 12:28 27.58525 32.97393 35944 ft 508 kts 122°
2026-04-30 12:29 27.57293 32.99903 35781 ft 509 kts 122°
2026-04-30 12:29 27.55440 33.03676 35489 ft 508 kts 122°
2026-04-30 12:29 27.53654 33.07308 35235 ft 509 kts 122°
2026-04-30 12:29 27.51204 33.12289 34994 ft 508 kts 122°
2026-04-30 12:30 27.48133 33.18515 34975 ft 519 kts 121°
2026-04-30 12:30 27.43687 33.27520 34968 ft 533 kts 122°
2026-04-30 12:31 27.41876 33.31186 34783 ft 534 kts 121°
2026-04-30 12:31 27.40085 33.34813 34866 ft 535 kts 122°
2026-04-30 12:31 27.36456 33.42133 34933 ft 535 kts 122°
2026-04-30 12:32 27.33408 33.48259 34940 ft 536 kts 122°
2026-04-30 12:32 27.29048 33.57031 34923 ft 535 kts 122°
2026-04-30 12:33 27.25085 33.64981 34920 ft 535 kts 122°
2026-04-30 12:33 27.22030 33.71104 34925 ft 535 kts 123°
2026-04-30 12:34 27.18415 33.78437 34914 ft 537 kts 120°
2026-04-30 12:34 27.15110 33.86917 34920 ft 539 kts 114°
2026-04-30 12:35 27.12079 33.95586 34922 ft 538 kts 113°
2026-04-30 12:35 27.08471 34.05789 34900 ft 537 kts 114°
2026-04-30 12:36 27.05370 34.14457 34877 ft 538 kts 114°
2026-04-30 12:36 27.02232 34.23216 34866 ft 540 kts 114°
2026-04-30 12:37 26.99093 34.31962 34863 ft 539 kts 114°
2026-04-30 12:37 26.96475 34.39239 34982 ft 538 kts 114°
2026-04-30 12:38 26.94371 34.45078 34741 ft 538 kts 114°
2026-04-30 12:38 26.93310 34.48024 34970 ft 538 kts 114°
2026-04-30 12:38 26.90167 34.56728 34884 ft 538 kts 114°
2026-04-30 12:39 26.87241 34.64796 34885 ft 536 kts 114°
2026-04-30 12:39 26.83867 34.74099 34660 ft 531 kts 115°
2026-04-30 12:40 26.82442 34.78026 34420 ft 526 kts 114°
2026-04-30 12:40 26.81459 34.80718 34247 ft 525 kts 114°
2026-04-30 12:40 26.79435 34.86263 33884 ft 524 kts 114°
2026-04-30 12:40 26.77963 34.90303 33628 ft 523 kts 113°
2026-04-30 12:41 26.76975 34.93013 33453 ft 522 kts 113°
2026-04-30 12:41 26.74948 34.98572 33086 ft 521 kts 114°
2026-04-30 12:41 26.73938 35.01342 32899 ft 520 kts 114°
2026-04-30 12:41 26.71939 35.06805 32549 ft 520 kts 113°
2026-04-30 12:42 26.70985 35.09410 32375 ft 519 kts 114°
2026-04-30 12:42 26.68989 35.14853 32010 ft 519 kts 114°
2026-04-30 12:42 26.67456 35.19033 31740 ft 518 kts 114°
2026-04-30 12:42 26.65988 35.23025 31475 ft 518 kts 114°
2026-04-30 12:43 26.64529 35.27000 31213 ft 517 kts 114°
2026-04-30 12:43 26.63013 35.31114 30945 ft 515 kts 114°
2026-04-30 12:43 26.62003 35.33854 30764 ft 513 kts 114°
2026-04-30 12:43 26.60044 35.39166 30417 ft 509 kts 114°
2026-04-30 12:44 26.59099 35.41728 30246 ft 507 kts 114°
2026-04-30 12:44 26.57135 35.47041 29890 ft 504 kts 114°
2026-04-30 12:44 26.56148 35.49700 29713 ft 501 kts 114°
2026-04-30 12:44 26.54618 35.53736 29425 ft 498 kts 115°
2026-04-30 12:45 26.52700 35.58734 29055 ft 496 kts 115°
2026-04-30 12:45 26.51670 35.61422 28854 ft 495 kts 115°
2026-04-30 12:45 26.49733 35.66482 28471 ft 492 kts 115°
2026-04-30 12:45 26.48811 35.68892 28293 ft 491 kts 115°
2026-04-30 12:46 26.46860 35.73982 27910 ft 488 kts 115°
2026-04-30 12:46 26.45873 35.76556 27714 ft 486 kts 115°
2026-04-30 12:46 26.43920 35.81645 27329 ft 483 kts 115°
2026-04-30 12:46 26.42430 35.85525 27034 ft 481 kts 115°
2026-04-30 12:47 26.41437 35.88107 26833 ft 480 kts 115°
2026-04-30 12:47 26.39934 35.92009 26537 ft 479 kts 115°
2026-04-30 12:47 26.38449 35.95868 26244 ft 476 kts 115°
2026-04-30 12:47 26.36992 35.99654 25949 ft 473 kts 115°
2026-04-30 12:48 26.35027 36.04750 25553 ft 471 kts 115°
2026-04-30 12:48 26.34052 36.07270 25353 ft 470 kts 115°
2026-04-30 12:48 26.32589 36.11054 25059 ft 467 kts 115°
2026-04-30 12:48 26.31121 36.14847 24760 ft 465 kts 115°
2026-04-30 12:49 26.29668 36.18602 24470 ft 463 kts 115°
2026-04-30 12:49 26.27754 36.23537 24073 ft 461 kts 115°
2026-04-30 12:49 26.26317 36.27245 23771 ft 458 kts 115°
2026-04-30 12:49 26.25362 36.29705 23570 ft 457 kts 115°
2026-04-30 12:50 26.23451 36.34615 23176 ft 455 kts 115°
2026-04-30 12:50 26.22502 36.37061 22977 ft 453 kts 115°
2026-04-30 12:50 26.21106 36.40640 22691 ft 452 kts 115°
2026-04-30 12:50 26.19264 36.45371 22318 ft 449 kts 115°
2026-04-30 12:51 26.18345 36.47695 22135 ft 447 kts 116°
2026-04-30 12:51 26.16813 36.51107 21854 ft 444 kts 120°
2026-04-30 12:51 26.14635 36.55552 21479 ft 440 kts 121°
2026-04-30 12:51 26.13007 36.58836 21194 ft 437 kts 121°
2026-04-30 12:52 26.11930 36.61005 20994 ft 435 kts 121°
2026-04-30 12:52 26.09796 36.65315 20563 ft 432 kts 121°
2026-04-30 12:52 26.08817 36.67298 20317 ft 431 kts 121°
2026-04-30 12:52 26.06788 36.71407 19741 ft 426 kts 121°
2026-04-30 12:53 26.05791 36.73426 19433 ft 423 kts 121°
2026-04-30 12:53 26.04297 36.76446 18939 ft 420 kts 121°
2026-04-30 12:53 26.02332 36.80419 18287 ft 414 kts 121°
2026-04-30 12:53 26.01366 36.82373 17984 ft 412 kts 121°
2026-04-30 12:54 25.99960 36.85215 17523 ft 409 kts 121°
2026-04-30 12:54 25.98535 36.88088 17038 ft 405 kts 121°
2026-04-30 12:54 25.96608 36.91975 16379 ft 401 kts 120°
2026-04-30 12:54 25.95142 36.94925 15826 ft 398 kts 120°
2026-04-30 12:55 25.94185 36.96848 15482 ft 397 kts 120°
2026-04-30 12:55 25.92271 37.00702 14788 ft 393 kts 120°
2026-04-30 12:55 25.91309 37.02638 14416 ft 391 kts 120°
2026-04-30 12:55 25.89887 37.05499 13907 ft 388 kts 119°
2026-04-30 12:56 25.88013 37.09266 13220 ft 383 kts 119°
2026-04-30 12:56 25.86620 37.12064 12989 ft 369 kts 119°
2026-04-30 12:56 25.85751 37.13808 12983 ft 357 kts 119°
2026-04-30 12:56 25.84533 37.16256 12990 ft 339 kts 119°
2026-04-30 12:57 25.82938 37.19454 12982 ft 315 kts 119°
2026-04-30 12:57 25.81630 37.21540 12962 ft 296 kts 141°
2026-04-30 12:57 25.79757 37.22525 12959 ft 271 kts 178°
2026-04-30 12:57 25.77848 37.22159 12695 ft 255 kts 215°
2026-04-30 12:58 25.76903 37.21259 12460 ft 248 kts 234°
2026-04-30 12:58 25.75787 37.19611 12194 ft 244 kts 236°
2026-04-30 12:58 25.74115 37.17715 11787 ft 245 kts 206°
2026-04-30 12:58 25.72434 37.17461 11497 ft 249 kts 169°
2026-04-30 12:59 25.70817 37.18194 11253 ft 248 kts 153°
2026-04-30 12:59 25.69728 37.18850 11084 ft 245 kts 153°
2026-04-30 12:59 25.67595 37.20129 10747 ft 240 kts 153°
2026-04-30 12:59 25.66016 37.21056 10477 ft 236 kts 153°
2026-04-30 13:00 25.64963 37.21665 10287 ft 235 kts 153°
2026-04-30 13:00 25.63430 37.22545 10131 ft 223 kts 153°
2026-04-30 13:00 25.61451 37.23674 9717 ft 217 kts 153°
2026-04-30 13:00 25.60472 37.24230 9488 ft 216 kts 152°
2026-04-30 13:01 25.58462 37.25381 8799 ft 222 kts 152°
2026-04-30 13:01 25.56979 37.26236 8288 ft 221 kts 152°
2026-04-30 13:01 25.55991 37.26801 7943 ft 220 kts 152°
2026-04-30 13:01 25.54502 37.27653 7415 ft 217 kts 152°
2026-04-30 13:02 25.52572 37.28765 6734 ft 214 kts 152°
2026-04-30 13:02 25.51620 37.29317 6391 ft 212 kts 152°
2026-04-30 13:02 25.49764 37.30405 5707 ft 209 kts 152°
2026-04-30 13:02 25.48377 37.31239 5189 ft 207 kts 153°
2026-04-30 13:03 25.47397 37.31624 4832 ft 206 kts 174°
2026-04-30 13:03 25.45550 37.30942 4136 ft 198 kts 225°
2026-04-30 13:03 25.44883 37.30148 3807 ft 196 kts 232°
2026-04-30 13:03 25.43658 37.28481 3167 ft 193 kts 234°
2026-04-30 13:04 25.43086 37.27637 3000 ft 181 kts 243°
2026-04-30 13:04 25.42844 37.26315 2970 ft 151 kts 280°
2026-04-30 13:04 25.43467 37.24823 2977 ft 146 kts 301°
2026-04-30 13:04 25.43852 37.24142 2988 ft 146 kts 301°
2026-04-30 13:05 25.44630 37.22780 2980 ft 142 kts 301°
2026-04-30 13:05 25.45188 37.21790 2983 ft 142 kts 301°
2026-04-30 13:05 25.45757 37.20776 2922 ft 142 kts 303°
2026-04-30 13:06 25.47381 37.19224 2552 ft 142 kts 324°
2026-04-30 13:06 25.47974 37.18808 2387 ft 141 kts 325°
2026-04-30 13:06 25.49192 37.17984 2051 ft 140 kts 326°
2026-04-30 13:06 25.50073 37.17395 1978 ft 129 kts 326°
2026-04-30 13:07 25.50615 37.17032 1975 ft 127 kts 326°
2026-04-30 13:07 25.51692 37.16312 1988 ft 126 kts 325°
2026-04-30 13:07 25.52220 37.15960 1989 ft 127 kts 325°
2026-04-30 13:07 25.53312 37.15229 1902 ft 128 kts 325°
2026-04-30 13:08 25.53866 37.14859 1800 ft 134 kts 325°
2026-04-30 13:08 25.55055 37.14066 1553 ft 139 kts 325°
2026-04-30 13:08 25.55942 37.13475 1353 ft 138 kts 325°
2026-04-30 13:08 25.56820 37.12890 1158 ft 138 kts 325°
2026-04-30 13:09 25.57711 37.12295 968 ft 138 kts 324°
2026-04-30 13:09 25.58294 37.11906 847 ft 137 kts 324°
2026-04-30 13:09 25.59442 37.11142 608 ft 137 kts 324°
2026-04-30 13:09 25.60345 37.10542 414 ft 136 kts 324°
2026-04-30 13:10 25.60951 37.10142 287 ft 133 kts 324°
2026-04-30 13:10 25.62100 37.09399 158 ft 104 kts 319°
2026-04-30 13:10 25.62434 37.09066 158 ft 88 kts 321°
2026-04-30 13:10 25.63284 37.08058 366 ft 156 kts 307°
2026-04-30 13:11 25.64152 37.07008 871 ft 184 kts 317°
2026-04-30 13:11 25.65420 37.06365 1706 ft 201 kts 353°
2026-04-30 13:11 25.66457 37.06502 2211 ft 215 kts 18°
2026-04-30 13:11 25.67883 37.07480 2772 ft 240 kts 36°
2026-04-30 13:12 25.69273 37.08783 2976 ft 250 kts 39°
2026-04-30 13:12 25.70685 37.10178 2981 ft 251 kts 40°
2026-04-30 13:12 25.72055 37.11626 2980 ft 252 kts 50°
2026-04-30 13:13 25.72457 37.15767 2987 ft 256 kts 115°
2026-04-30 13:13 25.71223 37.18264 2996 ft 256 kts 123°
2026-04-30 13:13 25.68290 37.20923 2995 ft 253 kts 150°
2026-04-30 13:14 25.66615 37.21953 2996 ft 253 kts 156°
2026-04-30 13:14 25.64872 37.22805 2999 ft 253 kts 159°
2026-04-30 13:14 25.61934 37.24190 3000 ft 255 kts 158°
2026-04-30 13:15 25.60197 37.25034 2999 ft 255 kts 158°
2026-04-30 13:15 25.56331 37.26948 2997 ft 254 kts 157°
2026-04-30 13:15 25.54714 37.27754 2997 ft 254 kts 157°
2026-04-30 13:16 25.53550 37.28334 2999 ft 255 kts 158°
2026-04-30 13:16 25.51134 37.28725 2986 ft 246 kts 201°
2026-04-30 13:16 25.49710 37.27567 2998 ft 241 kts 239°
2026-04-30 13:17 25.48165 37.23948 2991 ft 235 kts 246°
2026-04-30 13:17 25.47375 37.22263 2981 ft 225 kts 244°
2026-04-30 13:17 25.46910 37.19471 2651 ft 211 kts 297°
2026-04-30 13:18 25.48046 37.18298 2413 ft 211 kts 331°
2026-04-30 13:18 25.51394 37.16489 1991 ft 209 kts 328°
2026-04-30 13:18 25.52766 37.15608 1975 ft 209 kts 327°
2026-04-30 13:19 25.54124 37.14697 1750 ft 207 kts 326°
2026-04-30 13:19 25.54981 37.14119 1610 ft 201 kts 326°
2026-04-30 13:19 25.56285 37.13246 1297 ft 199 kts 326°
2026-04-30 13:19 25.57896 37.12172 928 ft 187 kts 325°
2026-04-30 13:20 25.58684 37.11646 783 ft 180 kts 325°
2026-04-30 13:20 25.59747 37.10939 566 ft 164 kts 325°
2026-04-30 13:20 25.61140 37.10010 254 ft 139 kts 324°
2026-04-30 13:20 25.62010 37.09434 164 ft 125 kts 322°
2026-04-30 13:21 25.62415 37.09128 158 ft 74 kts 322°
2026-04-30 13:21 25.62755 37.08925 158 ft 29 kts 326°
2026-04-30 13:21 25.62872 37.08827 158 ft 24 kts 326°
2026-04-30 13:22 25.63169 37.08628 158 ft 22 kts 324°
2026-04-30 13:22 25.63309 37.08550 158 ft 21 kts 339°
2026-04-30 13:22 25.63503 37.08313 158 ft 14 kts 234°
2026-04-30 13:23 25.63460 37.08261 158 ft 12 kts 191°
2026-04-30 13:23 25.63259 37.08376 158 ft 13 kts 146°
2026-04-30 13:24 25.63079 37.08500 158 ft 14 kts 148°
2026-04-30 13:24 25.62896 37.08540 158 ft 13 kts 241°
2026-04-30 13:25 25.62783 37.08516 158 ft 10 kts 111°
2026-04-30 13:25 25.62706 37.08625 158 ft 8 kts 136°
2026-04-30 13:26 25.62631 37.08537 158 ft 3 kts 239°
2026-04-30 13:26 25.62630 37.08535 158 ft 0 kts 239°
2026-04-30 13:27 25.62698 37.08583 158 ft 7 kts 200°
2026-04-30 13:28 25.62701 37.08619 158 ft 5 kts 131°
2026-04-30 13:28 25.62631 37.08594 158 ft 8 kts 246°
2026-04-30 13:28 25.62624 37.08576 158 ft 0 kts 246°
2026-04-30 13:29 25.62613 37.08550 158 ft 0 kts 245°
2026-04-30 13:29 25.62611 37.08546 158 ft 0 kts 246°